EW2514 Weather Reports


time (UTC)temp
C
wind
direction
speed
KPH
gust
KPH
rain 1hr
cm
rain 24hr
cm
rain mn
cm
humidity
%
barometer
mb
20260906163013 35 253 3.2 9.7 0.00 0.00 0.00 44 1013.6
20260906161540 35 8 3.2 8.0 0.00 0.00 0.00 48 1013.6
20260906160003 33 264 3.2 4.8 0.00 0.00 0.00 52 1013.6
20260906154528 32 359 3.2 6.4 0.00 0.00 0.00 55 1013.8
20260906153056 31 359 1.6 6.4 0.00 0.00 0.00 57 1013.9
20260906151521 31 359 1.6 4.8 0.00 0.00 0.00 58 1013.7
20260906150051 30 359 1.6 4.8 0.00 0.00 0.00 61 1013.7
20260906144511 28 359 0.0 4.8 0.00 0.00 0.00 67 1013.6
20260906143041 27 359 0.0 3.2 0.00 0.00 0.00 69 1013.7
20260906141607 27 359 3.2 6.4 0.00 0.00 0.00 71 1013.7
20260906140035 26 359 0.0 3.2 0.00 0.00 0.00 74 1014.0
20260906134600 25 359 0.0 3.2 0.00 0.00 0.00 77 1013.9
20260906133019 23 359 3.2 8.0 0.00 0.00 0.00 80 1014.0
20260906131549 23 359 0.0 4.8 0.00 0.00 0.00 82 1013.6
20260906130011 22 359 1.6 4.8 0.00 0.00 0.00 83 1013.4
20260906124543 22 346 0.0 1.6 0.00 0.00 0.00 85 1013.2
20260906123002 22 301 0.0 0.0 0.00 0.00 0.00 86 1013.2
20260906121531 22 299 0.0 0.0 0.00 0.00 0.00 86 1013.2
20260906114526 22 301 0.0 0.0 0.00 0.00 0.00 85 1012.8
20260906113057 22 359 0.0 0.0 0.00 0.00 0.00 85 1012.7
20260906111529 22 297 0.0 0.0 0.00 0.00 0.00 84 1012.8
20260906110052 22 299 0.0 0.0 0.00 0.00 0.00 84 1012.6
20260906104516 22 307 0.0 0.0 0.00 0.00 0.00 83 1012.5
20260906103049 22 310 0.0 0.0 0.00 0.00 0.00 83 1012.5
20260906101515 23 100 0.0 0.0 0.00 0.00 0.00 81 1012.5
20260906100040 23 359 0.0 0.0 0.00 0.00 0.00 80 1012.4
20260906094507 23 359 0.0 0.0 0.00 0.00 0.00 79 1012.4
20260906093041 23 359 0.0 1.6 0.00 0.00 0.00 78 1012.3
20260906091505 23 359 1.6 4.8 0.00 0.00 0.00 79 1012.3
20260906090034 23 359 0.0 4.8 0.00 0.00 0.00 80 1012.1
20260906084605 23 359 0.0 3.2 0.00 0.00 0.00 80 1012.2
20260906083033 24 308 1.6 3.2 0.00 0.00 0.00 79 1012.1
20260906081553 24 307 0.0 1.6 0.00 0.00 0.00 78 1012.0
20260906080027 24 307 0.0 1.6 0.00 0.00 0.00 76 1012.1
20260906074548 24 307 0.0 0.0 0.00 0.00 0.00 74 1012.3
20260906073007 25 308 0.0 0.0 0.00 0.00 0.00 73 1012.1
20260906071536 25 307 0.0 0.0 0.00 0.00 0.00 72 1012.1
20260906070003 25 307 0.0 0.0 0.00 0.00 0.00 71 1012.2
20260906064530 25 307 0.0 0.0 0.00 0.00 0.00 71 1012.4
20260906063058 25 307 0.0 1.6 0.00 0.00 0.00 69 1012.1
20260906061518 26 359 0.0 1.6 0.00 0.00 0.00 69 1012.1
20260906060046 26 359 0.0 0.0 0.00 0.00 0.00 67 1012.0
20260906054512 26 359 0.0 0.0 0.00 0.00 0.00 65 1012.2
20260906053053 27 359 0.0 0.0 0.00 0.00 0.00 64 1012.0
20260906051507 27 359 0.0 3.2 0.00 0.00 0.00 64 1012.0
20260906050046 27 359 0.0 1.6 0.00 0.00 0.00 64 1012.0
20260906044502 27 359 0.0 3.2 0.00 0.00 0.00 63 1011.9
20260906043032 27 272 0.0 3.2 0.00 0.00 0.00 62 1011.9
20260906041601 27 42 0.0 3.2 0.00 0.00 0.00 61 1011.6
20260906040028 28 359 1.6 3.2 0.00 0.00 0.00 60 1011.8
20260906034606 28 359 1.6 3.2 0.00 0.00 0.00 59 1011.7
20260906033027 28 359 1.6 4.8 0.00 0.00 0.00 58 1011.7
20260906031554 29 124 1.6 4.8 0.00 0.00 0.00 57 1011.6
20260906030023 30 359 0.0 1.6 0.00 0.00 0.00 56 1011.4
20260906024551 30 359 0.0 3.2 0.00 0.00 0.00 54 1011.3
20260906023015 30 359 0.0 4.8 0.00 0.00 0.00 52 1011.2
20260906021546 30 359 1.6 4.8 0.00 0.00 0.00 52 1011.0
20260906020012 31 359 1.6 4.8 0.00 0.00 0.00 51 1010.6
20260906014541 31 359 0.0 3.2 0.00 0.00 0.00 50 1010.5
20260906013005 33 359 0.0 3.2 0.00 0.00 0.00 46 1010.3
20260906011535 34 359 0.0 1.6 0.00 0.00 0.00 41 1010.1
20260906010058 34 359 1.6 3.2 0.00 0.00 0.00 40 1010.1
20260906004521 35 359 0.0 1.6 0.00 0.00 0.00 40 1009.9
20260906003049 36 359 0.0 4.8 0.00 0.00 0.00 39 1009.9
20260906001518 37 359 0.0 3.2 0.00 0.00 0.00 37 1009.9
20260906000053 37 359 0.0 1.6 0.00 0.00 0.00 34 1009.8
20260905234508 38 359 0.0 0.0 0.00 0.00 0.00 36 1009.8
20260905233040 38 359 0.0 1.6 0.00 0.00 0.00 35 1010.0
20260905231502 38 359 0.0 4.8 0.00 0.00 0.00 33 1010.0
20260905230030 38 21 0.0 4.8 0.00 0.00 0.00 34 1009.9
20260905224556 38 64 0.0 3.2 0.00 0.00 0.00 33 1009.7
20260905223020 38 81 3.2 8.0 0.00 0.00 0.00 33 1009.6
20260905221548 38 137 1.6 4.8 0.00 0.00 0.00 33 1009.7
20260905220013 39 172 1.6 8.0 0.00 0.00 0.00 32 1009.9
20260905214538 39 29 1.6 6.4 0.00 0.00 0.00 32 1010.1
20260905213005 38 101 1.6 11.3 0.00 0.00 0.00 33 1010.1
20260905211534 39 72 3.2 6.4 0.00 0.00 0.00 33 1010.4
20260905210118 38 201 4.8 11.3 0.00 0.00 0.00 33 1010.4
20260905204534 38 216 3.2 12.9 0.00 0.00 0.00 31 1010.8
20260905203051 38 43 3.2 8.0 0.00 0.00 0.00 33 1011.0
20260905201517 38 359 0.0 14.5 0.00 0.00 0.00 36 1011.1
20260905200044 38 316 3.2 6.4 0.00 0.00 0.00 35 1011.6
20260905194508 38 15 4.8 12.9 0.00 0.00 0.00 36 1011.9
20260905193036 38 359 4.8 14.5 0.00 0.00 0.00 36 1011.9
20260905191502 38 359 4.8 12.9 0.00 0.00 0.00 37 1012.0
20260905190028 37 217 6.4 11.3 0.00 0.00 0.00 39 1012.3
20260905184614 36 0.0 9.7 0.00 0.00 0.00 40 1012.6
20260905183038 38 359 4.8 14.5 0.00 0.00 0.00 38 1012.8
20260905181557 38 236 3.2 8.0 0.00 0.00 0.00 38 1012.9
20260905180016 37 172 0.0 9.7 0.00 0.00 0.00 40 1013.1
20260905174541 36 295 3.2 9.7 0.00 0.00 0.00 41 1013.4
20260905173006 37 359 1.6 14.5 0.00 0.00 0.00 42 1013.4
20260905171532 36 238 3.2 8.0 0.00 0.00 0.00 43 1013.7
20260905170100 36 235 4.8 11.3 0.00 0.00 0.00 43 1013.8
20260905164526 36 249 1.6 6.4 0.00 0.00 0.00 45 1014.0